STARLINK-2294 (48020 NORAD) Tracking and Keplerian Element Data

This shows tracking and keplerian element data for the satellite.

Feedback or suggestion? Click here.




ElementValue
Catalog48020
NameSTARLINK-2294
Epoch Orbit198
Epoch Day173.91668981
Epoch Year2021
RAAN114.2683
Inclination53.0459
Eccentricity0.0002373
Argument of Perigee21.6835
Mean Anonmoly141.0159
Mean Motion15.73206881
Decay Rate9.59E-05
L11 48020U 21024AV 21173.91668981 .00009590 00000-0 72642-4 0 9993
L22 48020 53.0459 114.2683 0002373 21.6835 141.0159 15.73206881 1987

Live tracking and technical data element details for STARLINK-2294 (NORAD 48020). STARLINK-2294 can be tracked NOW for your location showing map with azimuth and elevation plus other details from your city location.

Track the satellite on the map from your city or location and see movement details for azimuth, elevation, latitude, longitude, range, height, and movement on the map or in text.







IsCatalogInMostPopularTable: catalog: 48020, numindb: 44
Update: records affected: 1



GetName: 48020 STARLINK-2294

Hit Count: updated at: Thu, 24 Jun 2021 04:20:04 GMT